Charlotte, NC

2:26 AM EST on December 14, 2017 (GMT -0500)
Charlotte-Douglas International

Weather History for KCLT - December, 2002

Change the Weather History Date:

Friday, December 27, 2002

  Actual Average Record
Temperature  
Mean Temperature 34 °F 40 °F  
Max Temperature 48 °F 51 °F 72 °F (1971)
Min Temperature 21 °F 30 °F 15 °F (1970)
Degree Days  
Heating Degree Days 30 25  
Month to date heating degree days 601  
Since 1 July heating degree days 1237  
Cooling Degree Days 0 0  
Month to date cooling degree days 0  
Year to date cooling degree days 1517  
Moisture  
Dew Point 25 °F    
Average Humidity 71    
Maximum Humidity 96    
Minimum Humidity 42    
Precipitation  
Precipitation 0.00 in 0.10 in 1.25 in (1920)
Month to date precipitation 2.84  
Year to date precipitation 41.22  
Snow  
Snow 0.00 in 0.00 in 4.00 in (1892)
Month to date snowfall 0.2  
Since 1 July snowfall 0.3  
Snow Depth -    
Sea Level Pressure  
Sea Level Pressure 30.25 in    
Wind  
Wind Speed 1 mph (WSW)    
Max Wind Speed 7 mph    
Max Gust Speed -    
Visibility 9 miles    
Events      
T = Trace of Precipitation, MM = Missing Value Source: NWS Daily Summary

Daily Weather History Graph

Daily Weather History Graph

Search for Another Location

Airport or City:

Trip Planner

Search our weather history database for the weather conditions in past years. The results will help you decide how hot, cold, wet, or windy it might be!

Date:

Astronomy

Dec. 27, 2002 Rise Set
Actual Time 7:30 AM EST 5:18 PM EST
Civil Twilight 7:02 AM EST 5:47 PM EST
Nautical Twilight 6:30 AM EST 6:18 PM EST
Astronomical Twilight 6:00 AM EST 6:49 PM EST
Moon 12:35 AM EST (12/27) 12:54 PM EST (12/27)
Length of Visible Light 10h 44m
Length of Day
9h 47m
Last Quarter, 42% of the Moon is Illuminated
Dec 27
Last Quarter
Jan 2
New
Jan 10
First Quarter
Jan 18
Full
Jan 25
Last Quarter

Hourly Weather History & Observations

Time (EST) Temp. Windchill Dew Point Humidity Pressure Visibility Wind Dir Wind Speed Gust Speed Precip Events Conditions
12:51 AM 27.0 °F - 24.1 °F 89% 30.28 in 10.0 mi Calm Calm - N/A   Partly Cloudy
1:51 AM 28.0 °F - 24.1 °F 85% 30.27 in 10.0 mi Calm Calm - N/A   Partly Cloudy
2:51 AM 23.0 °F - 21.0 °F 92% 30.29 in 10.0 mi Calm Calm - N/A   Partly Cloudy
3:51 AM 24.1 °F - 21.9 °F 91% 30.29 in 10.0 mi Calm Calm - N/A   Partly Cloudy
4:51 AM 26.1 °F - 24.1 °F 92% 30.30 in 9.0 mi Calm Calm - N/A   Partly Cloudy
5:51 AM 21.9 °F - 19.9 °F 92% 30.31 in 8.0 mi Calm Calm - N/A   Partly Cloudy
6:51 AM 21.9 °F - 19.9 °F 92% 30.32 in 8.0 mi Calm Calm - N/A   Partly Cloudy
7:51 AM 21.9 °F - 21.0 °F 96% 30.32 in 5.0 mi Calm Calm - N/A   Partly Cloudy
8:51 AM 28.0 °F - 27.0 °F 96% 30.33 in 5.0 mi Calm Calm - N/A   Partly Cloudy
9:51 AM 35.1 °F - 28.9 °F 78% 30.33 in 7.0 mi Calm Calm - N/A   Clear
10:51 AM 39.0 °F - 28.0 °F 65% 30.32 in 10.0 mi Calm Calm - N/A   Partly Cloudy
11:51 AM 43.0 °F 38.8 °F 24.1 °F 47% 30.27 in 10.0 mi West 6.9 mph - N/A   Partly Cloudy
12:51 PM 45.0 °F 43.5 °F 26.1 °F 48% 30.23 in 10.0 mi Variable 3.5 mph - N/A   Scattered Clouds
1:51 PM 46.9 °F - 26.1 °F 44% 30.21 in 10.0 mi South 6.9 mph - N/A   Scattered Clouds
2:51 PM 48.9 °F - 27.0 °F 43% 30.19 in 10.0 mi Calm Calm - N/A   Scattered Clouds
3:51 PM 46.9 °F - 25.0 °F 42% 30.18 in 10.0 mi South 3.5 mph - N/A   Mostly Cloudy
4:51 PM 46.0 °F - 24.1 °F 42% 30.19 in 10.0 mi Calm Calm - N/A   Scattered Clouds
5:51 PM 41.0 °F - 24.1 °F 51% 30.20 in 10.0 mi Calm Calm - N/A   Partly Cloudy
6:51 PM 39.0 °F - 24.1 °F 55% 30.20 in 10.0 mi Calm Calm - N/A   Clear
7:51 PM 39.0 °F - 25.0 °F 57% 30.21 in 10.0 mi Calm Calm - N/A   Clear
8:51 PM 37.0 °F - 26.1 °F 65% 30.21 in 10.0 mi Calm Calm - N/A   Clear
9:51 PM 36.0 °F 33.3 °F 26.1 °F 67% 30.21 in 10.0 mi WNW 3.5 mph - N/A   Clear
10:51 PM 30.9 °F - 26.1 °F 82% 30.20 in 10.0 mi Calm Calm - N/A   Partly Cloudy
11:51 PM 28.9 °F 23.9 °F 27.0 °F 92% 30.19 in 9.0 mi NW 4.6 mph - N/A   Clear